EW9099 Weather Reports


Display with metric or nautical units.
time (UTC)temp
F
wind
direction
speed
MPH
gust
MPH
rain 1hr
in
rain 24hr
in
rain mn
in
humidity
%
barometer
mb
20260507183045 48 217 0.0 0.0 0.00 0.00 0.00 100 1017.8
20260507181540 48 216 0.0 3.0 0.00 0.00 0.00 100 1017.6
20260507180039 49 215 0.0 1.0 0.00 0.00 0.00 100 1017.4
20260507174538 50 215 0.0 3.0 0.00 0.00 0.00 100 1017.2
20260507173043 50 229 0.0 1.0 0.00 0.00 0.00 100 1017.1
20260507171545 51 244 0.0 4.0 0.00 0.00 0.00 100 1017.0
20260507170034 51 198 0.0 3.0 0.00 0.00 0.00 100 1016.8
20260507164533 52 211 1.0 4.0 0.00 0.00 0.00 100 1016.8
20260507163032 53 205 1.0 10.0 0.00 0.00 0.00 100 1016.8
20260507161531 54 211 2.0 7.0 0.00 0.00 0.00 100 1016.8
20260507160032 53 203 1.0 7.0 0.00 0.00 0.00 100 1016.8
20260507154534 54 207 6.0 10.0 0.00 0.00 0.00 100 1016.8
20260507153029 57 200 3.0 10.0 0.00 0.00 0.00 100 1016.7
20260507151528 57 229 4.0 10.0 0.00 0.00 0.00 100 1016.7
20260507150027 56 175 8.0 14.0 0.00 0.00 0.00 100 1016.7
20260507144536 57 194 7.0 13.0 0.00 0.00 0.00 100 1016.5
20260507143025 56 172 8.0 13.0 0.00 0.00 0.00 100 1016.4
20260507141525 57 186 10.0 14.0 0.00 0.00 0.00 100 1016.5
20260507140024 57 205 8.0 14.0 0.00 0.00 0.00 100 1016.6
20260507134525 57 198 8.0 14.0 0.00 0.00 0.00 100 1016.6
20260507133023 55 186 9.0 14.0 0.00 0.00 0.00 100 1016.6
20260507131521 53 184 8.0 15.0 0.00 0.00 0.00 100 1016.5
20260507130018 53 200 7.0 15.0 0.00 0.00 0.00 100 1016.3
20260507124516 57 179 11.0 18.0 0.00 0.00 0.00 100 1016.1
20260507123014 58 163 1.0 4.0 0.00 0.00 0.00 85 1016.0
20260507121514 58 300 2.0 8.0 0.00 0.00 0.00 100 1016.0
20260507120013 56 331 2.0 9.0 0.00 0.00 0.00 100 1015.9
20260507114512 56 13 2.0 8.0 0.00 0.00 0.00 100 1015.9
20260507113014 56 340 4.0 12.0 0.00 0.00 0.00 100 1015.8
20260507111513 58 347 3.0 9.0 0.00 0.00 0.00 85 1015.7
20260507110008 60 294 2.0 5.0 0.00 0.00 0.00 88 1015.7
20260507104508 58 281 1.0 6.0 0.00 0.00 0.00 100 1015.7
20260507103004 57 289 2.0 4.0 0.00 0.00 0.00 94 1015.6
20260507101600 57 43 3.0 8.0 0.00 0.00 0.00 100 1015.6
20260507100059 58 292 2.0 7.0 0.00 0.00 0.00 100 1015.6
20260507094555 57 292 1.0 7.0 0.00 0.00 0.00 100 1015.6
20260507093059 56 317 3.0 8.0 0.00 0.00 0.00 100 1015.5
20260507091556 57 316 4.0 9.0 0.00 0.00 0.00 100 1015.5
20260507090046 56 319 1.0 6.0 0.00 0.00 0.00 100 1015.5
20260507084546 55 344 2.0 11.0 0.00 0.00 0.00 100 1015.6
20260507083039 54 50 1.0 6.0 0.00 0.00 0.00 100 1015.5
20260507081536 53 330 0.0 5.0 0.00 0.00 0.00 100 1015.5
20260507080038 52 329 3.0 9.0 0.00 0.00 0.00 100 1015.4
20260507074530 51 320 3.0 7.0 0.00 0.00 0.00 100 1015.4
20260507073028 51 311 3.0 8.0 0.00 0.00 0.00 100 1015.3
20260507071526 50 339 1.0 6.0 0.00 0.00 0.00 100 1015.2
20260507070023 49 329 1.0 5.0 0.00 0.00 0.00 100 1015.3
20260507064522 48 342 0.0 6.0 0.00 0.00 0.00 100 1015.2
20260507063016 46 311 0.0 4.0 0.00 0.00 0.00 100 1015.0
20260507061511 45 336 2.0 5.0 0.00 0.00 0.00 100 1015.0
20260507060011 43 338 1.0 6.0 0.00 0.00 0.00 100 1014.9
20260507054504 42 324 2.0 6.0 0.00 0.00 0.00 100 1014.9
20260507053107 41 315 2.0 6.0 0.00 0.00 0.00 100 1014.8
20260507051556 39 331 2.0 4.0 0.00 0.00 0.00 100 1014.7
20260507050052 38 335 2.0 4.0 0.00 0.00 0.00 100 1014.6
20260507044600 36 355 2.0 4.0 0.00 0.00 0.00 100 1014.5
20260507043051 36 324 2.0 4.0 0.00 0.00 0.00 100 1014.6
20260507041549 36 324 1.0 3.0 0.00 0.00 0.00 100 1014.6
20260507040046 35 327 2.0 4.0 0.00 0.00 0.00 100 1014.4
20260507034544 34 333 2.0 3.0 0.00 0.00 0.00 100 1014.4
20260507033040 34 333 1.0 4.0 0.00 0.00 0.00 100 1014.2
20260507031636 33 335 2.0 4.0 0.00 0.00 0.00 100 1014.1
20260507030035 32 343 2.0 4.0 0.00 0.00 0.00 100 1013.9
20260507024514 32 345 2.0 3.0 0.00 0.00 0.00 100 1013.8
20260507023012 31 46 2.0 3.0 0.00 0.00 0.00 100 1013.6
20260507021517 31 46 0.0 1.0 0.00 0.00 0.00 100 1013.6
20260507020008 32 46 0.0 2.0 0.00 0.00 0.00 100 1013.6
20260507014507 32 46 1.0 3.0 0.00 0.00 0.00 100 1013.6
20260507013005 32 46 0.0 2.0 0.00 0.00 0.00 100 1013.6
20260507011504 32 46 1.0 3.0 0.00 0.00 0.00 100 1013.6
20260507010003 32 46 0.0 1.0 0.00 0.00 0.00 100 1013.5
20260507004502 32 46 0.0 2.0 0.00 0.00 0.00 100 1013.4
20260507003001 32 46 0.0 2.0 0.00 0.00 0.00 100 1013.4
20260507001600 32 46 0.0 2.0 0.00 0.00 0.00 100 1013.5
20260507000058 33 46 1.0 2.0 0.00 0.00 0.00 100 1013.4
20260506234556 33 119 1.0 2.0 0.00 0.00 0.00 100 1013.3
20260506233055 34 119 0.0 0.0 0.00 0.00 0.00 100 1013.4
20260506231552 34 119 0.0 2.0 0.00 0.00 0.00 100 1013.4
20260506230055 35 119 1.0 2.0 0.00 0.00 0.00 100 1013.4
20260506224600 35 119 0.0 0.0 0.00 0.00 0.00 100 1013.3
20260506223045 36 119 0.0 0.0 0.00 0.00 0.00 100 1013.2
20260506221542 37 119 0.0 0.0 0.00 0.00 0.00 100 1013.2
20260506220039 37 119 0.0 0.0 0.00 0.00 0.00 100 1013.2
20260506214546 38 119 0.0 2.0 0.00 0.00 0.00 100 1013.1
20260506213042 39 120 0.0 0.0 0.00 0.00 0.00 100 1012.9
20260506211536 39 120 0.0 1.0 0.00 0.00 0.00 100 1012.9
20260506210039 40 120 0.0 0.0 0.00 0.00 0.00 100 1012.9
20260506204535 40 120 0.0 0.0 0.00 0.00 0.00 100 1013.0
20260506203035 40 120 0.0 2.0 0.00 0.00 0.00 100 1012.9
20260506201533 39 107 0.0 2.0 0.00 0.00 0.00 100 1012.8
20260506200033 39 107 0.0 2.0 0.00 0.00 0.00 100 1012.7
20260506194541 41 115 0.0 2.0 0.00 0.00 0.00 100 1012.6
20260506193029 42 115 0.0 0.0 0.00 0.00 0.00 100 1012.6
20260506191533 43 115 0.0 1.0 0.00 0.00 0.00 100 1012.5
20260506190132 43 115 0.0 0.0 0.00 0.00 0.00 100 1012.5
20260506184528 44 115 0.0 0.0 0.00 0.00 0.00 100 1012.3